Location: Limerick
(52.6650°N, 8.6230°W)
Time: 03:59:00
(UTC+00:00)

ISS - Pass Details

Date: 23 February 2020
Orbit: 415 x 423 km, 51.6° (Epoch: 27 February)

Event Time Altitude Azimuth Distance (km) Brightness Sun altitude
Rises 06:28:09 0° 209° (SSW) 2,357 -0.2 -10.9°
Reaches altitude 10° 06:30:40 10° 190° (S) 1,499 -1.0 -10.6°
Maximum altitude 06:33:03 18° 144° (SE) 1,100 -1.1 -10.2°
Drops below altitude 10° 06:35:27 10° 99° (E) 1,508 0.7 -9.8°
Sets 06:37:59 0° 80° (E) 2,377 1.9 -9.4°
